Temp_Advection
nan nan nan nan nan nan nan nan nan nan nan nan nan nan nan nan nan nan nan nan nan nan nan nan nan nan nan nan nan nan nan nan nan nan nan nan nan nan
nan -0 -0 -0 -0 -0 -0 -0 0 0 -0 -1 -1 -1 -1 -2 -1 -1 -1 0 0 0 -0 -0 -0 -0 -0 -0 -0 -1 -1 -1 -1 -1 -1 -1 -1 nan
nan -0 -0 -0 -0 -0 -0 -0 0 1 0 -1 -1 -1 -0 -0 -1 -2 -2 -1 -1 -0 -0 0 0 -0 -0 -0 -0 -0 -0 -0 -1 -1 -1 -1 -1 nan
nan -0 -0 -0 -0 -0 -0 -0 -0 0 1 -0 -0 -0 -1 -0 0 -0 -0 -0 -0 -0 -0 -0 -0 -0 -0 -0 -0 -0 -0 -0 -0 -0 -1 -1 -0 nan
nan -0 -0 -0 -0 -0 0 0 0 0 0 0 -1 -1 -0 -0 -0 -0 -0 0 -0 -0 -0 -0 -0 -0 -0 -0 -0 -0 -0 -0 -0 -0 -0 -0 -1 nan
nan -0 -0 -0 0 0 0 0 0 0 0 -0 -0 -1 -1 -0 -0 -0 -0 -0 -0 -0 -0 -0 0 -0 -0 -0 -0 -0 -0 -0 -0 -0 -0 -0 -0 nan
nan -0 -0 -0 -0 0 0 0 0 0 0 -0 -0 -0 -0 -0 -0 -0 -0 -1 -1 -1 -1 -1 -1 -0 -0 -0 -0 -0 -0 -0 -0 -0 -0 -0 -0 nan
nan -0 -0 -0 -0 -0 -0 -0 -0 -0 -0 -0 -0 -0 -0 -0 -0 -0 -0 -0 -1 -1 -0 -0 -1 -0 -0 -0 -0 -0 -0 -0 -0 -0 -0 -0 -0 nan
nan -0 0 0 -0 -0 0 -0 -0 -0 0 0 0 0 -0 -0 0 0 -0 -0 -0 -0 -0 -1 -0 -0 -0 -0 -0 -0 -0 -0 -0 -0 -0 -0 -0 nan
nan -0 0 0 0 0 -0 0 -0 -0 -0 0 -0 0 0 -0 0 0 -0 -0 -0 -0 -0 -1 -1 -0 -0 -0 -0 -0 -0 -0 -0 -0 -0 -0 -0 nan
nan -0 -1 -0 0 1 0 -0 -0 -0 -0 0 0 -0 -0 -0 -0 -0 -0 -0 -1 -1 -0 -0 -1 -0 -1 -1 -0 -0 -0 -0 -0 -0 -0 -0 -0 nan
nan 0 0 -1 -0 0 1 0 -0 -0 0 -0 -0 -0 -0 -0 -0 -0 0 -0 -0 -1 -0 -0 -1 -0 -1 -1 -1 -0 -0 -0 -0 -0 -0 -0 -0 nan
nan 0 0 -0 -0 1 1 1 1 0 -0 -0 -0 -0 -0 -0 -0 -0 -0 -0 -0 -0 -0 0 -0 -0 -0 -1 -1 -1 -0 -0 -0 -0 -0 -0 -0 nan
nan 0 -0 -0 -0 0 0 -0 1 1 -0 -0 -0 -0 -0 -0 -0 -0 -0 -0 -0 -0 -0 0 -0 -0 -0 -0 -1 -1 -1 0 -0 -0 -0 -0 -0 nan
nan -0 1 -0 -1 -1 -0 -0 -0 -0 0 -0 -0 -0 -0 -0 -0 -0 -0 -1 -1 -0 0 -0 -0 -0 -0 -0 -0 -1 -1 -1 0 -0 -0 -0 0 nan
nan -0 0 0 0 0 -0 -0 0 0 -0 -0 -0 -0 -0 -0 -0 -0 -0 -0 -1 -1 -1 0 0 -0 -0 -0 -0 -1 0 -0 -0 0 -0 -1 0 nan
nan -0 -0 0 0 0 -0 0 0 0 0 0 0 -0 -0 -0 -0 0 0 -0 -0 -1 -1 -1 -0 -0 -0 0 -0 -0 -0 -0 -0 -0 0 -1 -1 nan
nan 0 0 0 0 -0 -0 -0 0 0 -0 0 1 0 -0 -0 -0 -0 0 -0 -0 -0 -0 -1 -1 -0 -0 -0 -0 -0 -0 -0 -0 -0 -0 0 -1 nan
nan 0 0 0 0 0 -0 -0 -0 -0 -1 -0 -0 0 0 -0 -0 -0 -0 -0 -0 -0 -0 -0 -1 -1 -1 -1 -1 -0 -0 -0 -0 -0 -0 -0 -0 nan
nan 0 0 0 0 0 -0 -0 0 -0 -1 -0 0 -0 0 0 -0 -0 0 -0 -0 -0 -0 -1 -1 -1 -1 -0 -1 -1 0 -0 -0 -0 -0 -1 -1 nan
nan 0 0 1 0 -0 -0 -0 0 0 -0 -1 -0 0 -0 0 -0 -0 0 -0 -0 -0 -0 -0 -0 -0 -1 -1 -1 -1 -0 0 0 0 0 -0 -1 nan
nan 1 1 0 0 0 -0 -0 0 0 -0 -0 -0 -0 0 0 -0 -0 -0 -0 0 1 0 -1 -0 0 0 -0 -1 -1 -1 -0 -0 0 1 1 0 nan
nan nan nan nan nan nan nan nan nan nan nan nan nan nan nan nan nan nan nan nan nan nan nan nan nan nan nan nan nan nan nan nan nan nan nan nan nan nan
Wind_Speed
4 5 6 8 9 11 12 12 12 9 18 19 16 25 30 32 32 35 35 34 35 29 27 26 26 28 29 29 28 28 28 30 30 29 29 29 29 29
4 6 7 10 12 12 13 13 13 14 14 22 26 27 29 32 32 33 36 36 30 25 27 26 29 30 30 29 29 29 29 28 29 29 30 30 30 30
6 6 10 11 12 13 15 16 16 17 21 26 25 27 28 27 29 32 28 29 28 27 27 29 31 30 29 29 29 29 28 29 29 30 30 29 29 28
6 9 11 12 14 15 17 17 18 19 21 25 26 24 28 30 25 26 25 24 24 26 27 28 28 29 29 29 27 27 28 28 29 28 29 27 29 30
8 11 12 14 15 17 18 18 19 20 21 21 27 29 28 25 26 25 24 25 29 29 25 27 26 26 29 28 29 30 30 29 27 25 25 29 30 29
10 12 14 16 18 19 20 20 19 20 20 22 27 29 26 27 24 26 28 34 33 32 34 33 27 29 30 28 26 26 26 24 24 25 28 27 27 27
13 15 17 18 20 21 22 20 20 20 19 20 24 27 26 25 26 27 30 34 36 35 38 28 32 33 33 29 25 23 25 28 25 25 26 27 27 27
13 16 17 19 21 22 21 19 18 20 20 21 25 27 26 27 28 29 34 39 38 33 28 35 32 35 31 32 25 26 26 27 28 26 24 25 25 25
15 17 18 20 21 20 18 15 15 15 18 22 26 27 31 30 32 39 37 34 35 34 30 33 32 33 31 29 27 25 22 22 24 25 25 26 26 26
17 19 19 19 17 19 19 17 18 19 19 23 30 30 30 31 32 34 30 30 31 29 25 32 31 31 30 28 21 18 19 25 25 23 25 26 26 27
18 19 19 18 17 21 18 19 21 21 22 25 25 27 27 27 24 24 27 29 33 34 30 27 32 37 33 28 21 17 29 22 24 24 26 26 27 26
18 17 16 18 21 20 18 21 24 26 26 28 27 24 22 21 17 21 26 30 32 34 28 30 32 32 33 23 24 35 30 26 27 27 24 23 21 24
17 15 16 18 21 20 20 23 23 25 26 22 23 25 23 23 25 24 24 24 26 30 29 27 31 32 29 34 33 37 28 32 29 27 18 18 21 23
16 16 18 20 20 21 20 20 22 20 18 21 24 25 27 28 27 26 24 23 22 26 27 24 27 29 29 31 35 35 33 30 28 21 20 25 22 24
18 20 21 21 23 21 19 18 18 17 20 22 25 25 26 26 28 25 23 23 22 21 22 21 23 22 21 26 31 34 32 30 18 24 28 26 26 23
18 20 22 21 19 17 16 17 18 18 19 23 23 24 24 25 24 23 24 24 24 26 20 19 17 17 23 26 28 31 25 21 27 27 28 28 25 20
20 22 20 17 17 16 16 19 22 21 22 23 23 24 24 24 25 24 22 23 25 28 29 24 20 22 25 25 25 22 23 26 26 28 28 30 26 22
20 19 17 17 16 19 21 24 23 22 25 24 23 23 23 24 26 24 23 24 26 28 27 27 27 28 25 24 18 20 27 28 29 27 25 26 28 25
19 18 18 19 21 22 23 24 24 25 26 24 24 22 22 24 23 23 23 24 27 27 28 27 25 24 29 30 30 24 29 24 24 26 24 24 29 30
19 19 20 21 22 22 25 25 25 27 26 24 22 22 23 21 22 23 23 25 27 29 30 27 25 24 26 31 35 33 19 24 28 28 28 28 26 24
21 21 22 23 22 23 26 26 26 28 25 24 24 23 23 21 22 24 24 23 24 29 31 29 25 24 22 24 28 29 26 20 18 25 29 28 29 30
21 23 23 23 23 26 27 27 27 29 27 25 24 24 24 22 22 24 23 26 27 30 29 26 24 26 22 26 28 30 31 27 24 23 20 19 22 24
23 24 25 26 25 26 30 25 27 31 25 24 24 25 23 24 21 22 23 25 29 31 30 31 31 29 27 31 29 32 32 32 31 28 25 22 21 22
Wind_Direction
62 33 358 348 336 335 337 333 324 312 311 319 317 307 309 312 313 315 314 315 314 317 315 313 312 313 311 307 304 300 296 292 290 289 290 288 285 282
16 2 346 346 339 336 333 329 320 303 285 304 311 309 310 309 312 310 313 314 319 319 317 315 314 313 310 306 304 300 300 296 292 290 287 284 284 280
358 345 352 345 336 329 329 328 321 312 301 308 309 308 310 313 306 312 324 331 328 321 317 313 314 315 312 308 306 304 300 298 294 290 288 285 284 281
354 350 346 341 335 330 329 326 320 318 308 306 313 314 307 316 331 329 319 318 312 309 311 313 312 311 309 309 307 303 301 300 297 292 289 286 285 286
349 347 341 336 331 328 327 323 319 312 313 306 306 318 331 334 320 318 317 305 304 315 313 314 309 310 309 309 304 303 299 299 299 294 291 290 288 285
348 342 337 333 329 326 326 323 318 315 311 316 319 324 321 323 318 315 314 312 321 319 314 315 306 309 310 312 310 306 305 301 300 293 295 293 291 288
343 341 334 333 328 328 327 323 317 314 315 317 313 313 317 319 318 316 312 314 312 313 316 315 306 311 310 312 311 310 306 305 302 300 297 295 291 287
342 340 335 333 330 324 321 319 329 326 319 314 309 309 311 312 316 316 311 315 314 317 311 311 312 309 312 314 312 307 306 307 304 301 301 302 299 294
342 339 336 327 322 319 321 321 315 304 304 304 303 304 307 312 308 309 314 312 310 315 319 311 315 313 315 314 311 307 310 313 317 309 303 303 300 294
339 335 327 321 317 316 320 317 303 314 307 298 299 307 311 311 307 307 310 313 314 320 323 313 321 321 324 326 330 319 310 311 314 315 309 305 303 298
334 326 323 325 321 324 320 315 314 308 302 301 302 302 302 302 305 313 313 313 312 314 318 316 315 319 322 325 323 313 321 319 317 316 312 308 303 301
325 324 320 318 317 319 315 310 306 311 307 310 310 310 305 311 313 304 306 308 307 309 316 315 314 319 319 316 304 320 328 327 318 316 313 312 315 314
320 317 311 305 314 318 314 312 309 309 311 317 313 310 324 319 313 313 315 317 315 310 318 315 312 315 309 309 309 316 324 319 323 320 332 328 319 313
319 314 312 315 317 318 315 310 310 318 324 311 311 322 324 322 319 316 314 312 308 304 311 314 308 310 308 303 304 317 318 320 321 322 323 319 316 316
329 327 324 315 318 318 318 324 323 312 307 317 321 319 320 318 313 315 314 313 310 314 312 308 303 304 308 306 306 310 313 320 331 321 320 320 323 329
315 318 320 318 318 319 313 310 315 315 317 317 316 320 319 321 325 325 321 326 326 323 325 323 320 313 310 308 308 307 318 317 327 323 320 319 323 325
321 324 322 319 312 311 305 315 326 325 319 321 318 319 319 326 330 329 328 326 323 323 324 331 332 323 316 317 314 319 320 317 316 316 315 311 319 322
322 322 318 312 308 309 314 322 328 321 321 320 321 316 322 325 318 325 326 327 324 322 326 333 328 323 324 323 324 311 311 309 312 311 312 314 313 321
319 321 312 312 310 313 317 321 319 316 319 318 318 321 315 316 322 322 326 325 323 328 327 323 324 326 323 317 319 315 315 319 321 320 316 310 307 311
315 313 310 306 309 313 319 315 313 312 316 315 317 312 314 317 318 320 322 322 325 323 320 323 321 319 316 312 309 316 327 318 314 310 311 309 304 305
315 309 308 306 306 307 318 315 307 306 313 307 312 312 315 308 311 317 317 318 320 321 319 319 320 322 310 312 313 317 323 325 310 305 306 309 310 311
307 305 308 306 307 311 309 314 307 305 310 310 312 313 313 311 303 310 311 321 321 324 320 321 329 335 328 325 319 318 324 327 325 319 314 306 299 295
313 314 313 313 310 307 306 310 302 304 306 310 312 313 313 312 307 306 314 321 316 317 324 326 328 329 325 322 319 319 324 329 331 328 328 329 316 302
Height
1524 1523 1524 1524 1525 1524 1522 1521 1520 1517 1514 1512 1510 1507 1503 1499 1495 1491 1486 1482 1478 1474 1471 1468 1464 1461 1458 1455 1453 1450 1448 1446 1444 1443 1442 1440 1439 1439
1523 1522 1523 1523 1523 1522 1520 1518 1517 1516 1512 1509 1505 1502 1498 1494 1491 1486 1482 1477 1473 1470 1467 1463 1460 1456 1452 1449 1446 1443 1441 1439 1437 1435 1434 1433 1432 1432
1521 1522 1520 1521 1520 1520 1517 1515 1513 1511 1507 1503 1501 1497 1493 1489 1484 1481 1476 1472 1469 1466 1463 1459 1455 1450 1447 1444 1440 1437 1435 1432 1430 1428 1426 1425 1422 1421
1520 1519 1518 1518 1518 1517 1513 1511 1509 1506 1503 1498 1496 1492 1488 1484 1478 1475 1473 1470 1466 1462 1459 1454 1450 1446 1442 1438 1435 1432 1429 1426 1423 1420 1419 1417 1415 1413
1518 1517 1516 1515 1515 1513 1510 1507 1505 1502 1499 1496 1490 1487 1482 1478 1476 1473 1470 1465 1461 1457 1453 1449 1444 1441 1436 1432 1429 1426 1422 1419 1416 1414 1412 1410 1408 1406
1515 1515 1513 1512 1511 1508 1506 1503 1500 1498 1495 1491 1486 1482 1480 1476 1474 1469 1463 1460 1454 1451 1447 1443 1439 1434 1430 1425 1423 1420 1416 1413 1410 1408 1405 1403 1400 1398
1513 1511 1510 1509 1507 1504 1501 1499 1496 1493 1490 1487 1484 1480 1476 1473 1469 1465 1460 1454 1450 1446 1440 1437 1433 1428 1423 1420 1417 1414 1411 1408 1404 1401 1398 1395 1393 1391
1511 1509 1506 1505 1502 1500 1498 1495 1492 1489 1487 1485 1482 1477 1473 1470 1464 1460 1455 1449 1442 1442 1435 1430 1427 1422 1418 1415 1412 1409 1405 1402 1398 1394 1392 1389 1386 1384
1507 1506 1504 1502 1499 1496 1494 1492 1491 1489 1487 1483 1478 1474 1468 1465 1460 1454 1450 1446 1439 1434 1431 1423 1422 1417 1414 1410 1406 1403 1400 1397 1393 1390 1386 1383 1380 1378
1504 1503 1502 1499 1496 1492 1490 1488 1486 1483 1482 1479 1474 1468 1464 1461 1457 1451 1445 1440 1435 1431 1429 1421 1417 1412 1409 1405 1401 1399 1397 1393 1389 1385 1381 1377 1374 1371
1502 1500 1498 1495 1491 1489 1487 1484 1481 1479 1476 1472 1468 1464 1460 1456 1452 1446 1442 1437 1429 1425 1424 1418 1413 1407 1404 1400 1397 1395 1392 1387 1384 1380 1375 1372 1367 1364
1500 1496 1494 1491 1488 1486 1483 1480 1476 1473 1468 1464 1460 1456 1453 1449 1447 1444 1439 1434 1428 1420 1419 1416 1410 1407 1398 1394 1393 1389 1386 1382 1379 1374 1369 1365 1362 1359
1496 1494 1492 1488 1485 1482 1478 1475 1471 1467 1463 1459 1456 1452 1448 1444 1442 1438 1435 1431 1425 1418 1416 1413 1407 1404 1401 1391 1386 1384 1381 1377 1372 1368 1364 1361 1359 1356
1493 1490 1487 1483 1480 1476 1474 1470 1466 1462 1459 1456 1451 1447 1443 1439 1436 1432 1429 1425 1421 1416 1411 1409 1404 1400 1395 1390 1383 1379 1376 1372 1368 1363 1360 1357 1353 1349
1488 1485 1481 1478 1474 1472 1469 1465 1463 1460 1456 1451 1448 1443 1440 1435 1431 1426 1422 1419 1414 1410 1407 1404 1400 1396 1393 1387 1381 1376 1371 1366 1363 1361 1356 1352 1347 1343
1484 1481 1477 1473 1470 1468 1465 1462 1459 1455 1452 1448 1443 1439 1435 1431 1426 1422 1417 1412 1408 1403 1401 1398 1395 1392 1387 1383 1378 1371 1368 1364 1360 1357 1353 1348 1344 1340
1478 1475 1472 1469 1466 1464 1461 1457 1454 1450 1447 1442 1438 1435 1431 1427 1423 1419 1414 1410 1406 1400 1395 1392 1390 1387 1383 1378 1372 1368 1364 1361 1358 1353 1349 1343 1340 1336
1474 1471 1468 1465 1463 1459 1456 1452 1449 1446 1442 1438 1434 1431 1427 1424 1419 1415 1411 1407 1402 1398 1393 1389 1385 1380 1376 1373 1371 1366 1361 1357 1352 1348 1345 1340 1335 1332
1470 1467 1464 1461 1458 1455 1451 1448 1444 1441 1437 1434 1430 1426 1424 1420 1416 1411 1407 1404 1399 1395 1390 1387 1382 1378 1372 1365 1363 1363 1357 1351 1347 1343 1340 1336 1331 1326
1466 1463 1460 1457 1454 1451 1448 1444 1440 1437 1432 1429 1426 1423 1419 1416 1412 1408 1404 1400 1396 1392 1387 1383 1379 1376 1371 1365 1357 1352 1353 1348 1344 1338 1333 1330 1326 1322
1462 1459 1456 1453 1449 1446 1443 1440 1436 1432 1428 1425 1421 1418 1414 1412 1408 1404 1401 1398 1394 1388 1382 1378 1374 1371 1365 1361 1354 1348 1345 1344 1340 1335 1329 1324 1319 1314
1458 1455 1451 1448 1445 1441 1437 1434 1431 1427 1423 1419 1416 1413 1410 1407 1404 1400 1397 1393 1389 1385 1379 1373 1369 1365 1361 1357 1351 1345 1339 1336 1334 1330 1327 1323 1319 1312
1453 1449 1446 1443 1440 1436 1432 1428 1425 1421 1417 1414 1411 1408 1405 1401 1398 1395 1392 1389 1385 1380 1375 1369 1364 1361 1356 1353 1348 1341 1336 1332 1327 1321 1319 1318 1313 1309